The Gut Buster
Skip Navigation Links
Results
Leaderboard
MST Races
Race Stats
Smartphone Results
31 December 2016
HyperLink
Click your name for detailed results
Page 1 of 7 (321 items)
[1]234567
Pos
Bib No
Fav
Share
Print
Name
Gun Time
Chip Time
Category
Cat Pos
Gender
Gen Pos
Club
Pace
1323Colin SEYMOUR1:05:00.91:04:59.8Top 31Male1FETCH EVERYONE 9.2 m/hr
2306Stephen RIDLEY1:05:19.91:05:19.4Top 32Male2TRI2O 9.2 m/hr
351Graham BUNGAY1:06:55.51:06:54.8Top 33Male3  9.0 m/hr
4295Will RAWLING1:06:57.91:06:56.9Under 401Male4SMARC 9.0 m/hr
5194Luc JOLLY1:07:31.41:07:27.2Under 402Male5READING AC 8.9 m/hr
6139Simong GOUGH1:08:24.21:08:23.4Under 403Male6  8.8 m/hr
7353Gareth SYLVESTER-BRADLEY1:08:32.91:08:31.340-491Male7TRI2O 8.8 m/hr
8182Callum HUGHES1:08:58.21:08:58.1Under 404Male8TRI2O 8.7 m/hr
9390Ben WHALLEY1:09:05.61:09:00.840-492Male9READING ROADRUNNERS 8.7 m/hr
10348Andrew STRINGER1:09:37.21:09:35.5Under 405Male10FULHAM RUNNING CLUB 8.6 m/hr
11344Sean STEWART1:10:46.91:10:45.650-591Male11TRI2O 8.5 m/hr
12106Simon ELSBURY1:10:56.61:10:27.6Under 406Male12FINCH COASTERS 8.5 m/hr
13362Dean THATCHER1:10:58.51:10:57.1Under 407Male13WARGRAVE RUNNERS 8.5 m/hr
14375Jeremy WAITE1:11:01.51:10:48.140-493Male14  8.4 m/hr
15265Andy MORGAN1:11:03.81:11:02.540-494Male15READING ROADRUNNERS 8.4 m/hr
16237Natasha MANSELL1:11:06.71:11:04.5Top 31Female1ALDERSHOT FARNHAM DISTRICT 8.4 m/hr
17134Andy GODWIN1:11:12.71:11:11.3Under 408Male16WHITE HORSE HARRIERS 8.4 m/hr
18121William FORBES1:11:29.91:11:25.2Under 409Male17SAN FRANCISCO TRAIL RUNNERS 8.4 m/hr
19156Gavin HARPER1:11:55.91:11:51.340-495Male18  8.3 m/hr
2064Richard COATES1:11:57.61:11:54.2Under 4010Male19TRI2O 8.3 m/hr
21138Mark GORST1:12:13.71:12:10.340-496Male20  8.3 m/hr
22116David FERGUSON1:12:22.71:11:53.9Under 4011Male21BRAMLEY TRAIL RUNNERS 8.3 m/hr
23200Dave JONES1:12:36.21:12:19.0Under 4012Male22BRAMLEY TRAIL RUNNERS 8.3 m/hr
24397Jon WILLIAMS1:12:59.71:12:53.7Under 4013Male23READING JOGGERS 8.2 m/hr
25180Julian HOUGH1:13:23.11:13:15.050-592Male24READING ROADRUNNERS 8.2 m/hr
26329Carlton SHORTER1:13:24.21:13:21.7Under 4014Male25WARGRAVE RUNNERS 8.2 m/hr
27355Christian TALLENT1:13:25.01:12:56.0Under 4015Male26  8.2 m/hr
2847Sir James BRYCE1:13:30.21:13:26.640-497Male27  8.2 m/hr
29383Rich WARNER1:13:39.91:13:21.040-498Male28BENSON STRIDERS 8.1 m/hr
30167David HILL1:13:42.81:13:07.4Under 4016Male29  8.1 m/hr
31278Nick ONSLOW1:13:57.41:13:48.940-499Male30BRAMLEY TRAIL RUNNERS 8.1 m/hr
3282Mark DAVIDSON1:14:04.11:13:59.0Under 4017Male31  8.1 m/hr
3353Tim CARMAN1:14:24.01:14:14.340-4910Male32HART ROAD RUNNERS 8.1 m/hr
34147Jonathan GUBB1:14:31.01:14:27.040-4911Male33TRI2O 8.1 m/hr
35100Andy DUNN1:14:34.31:14:01.3Under 4018Male34BRISTOL AND WEST AC 8.0 m/hr
36220Chris LEPPARD1:14:36.21:14:34.0Under 4019Male35WARGRAVE RUNNERS 8.0 m/hr
37158Neil HART1:15:00.01:14:58.5Under 4020Male36  8.0 m/hr
3861Simon CLARIDGE1:15:10.71:15:10.050-593Male37HILLINGDON AC 8.0 m/hr
39189Timothy JEFFCOAT1:15:13.41:14:59.6Under 4021Male38  8.0 m/hr
4079Pete CROALL1:15:26.61:15:00.9Under 4022Male39STOPSLEY STRIDERS 8.0 m/hr
41286Paul PERRATT1:15:51.31:15:39.140-4912Male40  7.9 m/hr
42223Gregor LOCK1:15:55.01:15:45.150-594Male41  7.9 m/hr
4357Tim CHALLINOR1:16:05.91:15:50.9Under 4023Male42TRI2O 7.9 m/hr
44368Kai TURCK1:16:24.71:16:09.940-4913Male43  7.9 m/hr
4549Freddie BRYCE1:16:26.51:16:22.3Under 4024Male44  7.8 m/hr
46150Richard HALLETT1:16:31.61:15:53.1Under 4025Male45LITTLEDOWN HARRIERS 7.8 m/hr
4759Harriet CHETTLEBURGH1:16:32.21:16:28.8Top 32Female2TRI2O 7.8 m/hr
48176Jonathan HORAN1:16:50.11:16:30.4Under 4026Male46HAYES AND HARLINGTON ROAD RUNNERS 7.8 m/hr
49124Andrew FROST1:17:04.61:16:22.4Under 4027Male47  7.8 m/hr
50332Justin SIMONS1:17:09.31:17:05.6Under 4028Male48READING ROADRUNNERS 7.8 m/hr
Page 1 of 7 (321 items)
[1]234567
fb